QPF
0.04 0.05 0.06 0.07 0.09 0.09 0.09 0.08 0.06 0.05 0.03 0.03 0.02 0.03 0.03 0.03 0.03 0.03 0.04 0.05 0.06 0.06 0.05 0.05 0.05 0.06 0.07 0.07 0.07 0.07 0.08 0.09 0.08 0.05 0.04 0.03 0.03 0.04 0.03 0.03 0.03 0.03 0.02
0.04 0.04 0.05 0.06 0.06 0.06 0.07 0.07 0.05 0.04 0.03 0.02 0.02 0.03 0.04 0.04 0.04 0.04 0.04 0.04 0.05 0.06 0.05 0.06 0.05 0.06 0.08 0.09 0.09 0.10 0.10 0.09 0.06 0.05 0.04 0.04 0.04 0.04 0.04 0.03 0.02 0.02 0.02
0.03 0.04 0.04 0.04 0.05 0.06 0.06 0.04 0.03 0.03 0.03 0.03 0.03 0.03 0.03 0.04 0.03 0.04 0.04 0.04 0.03 0.04 0.04 0.05 0.05 0.06 0.07 0.08 0.10 0.10 0.10 0.08 0.07 0.05 0.04 0.04 0.04 0.04 0.05 0.03 0.02 0.02 0.02
0.02 0.03 0.04 0.04 0.03 0.04 0.05 0.03 0.03 0.03 0.03 0.02 0.03 0.03 0.04 0.03 0.02 0.02 0.03 0.03 0.03 0.03 0.03 0.03 0.04 0.04 0.05 0.06 0.07 0.08 0.09 0.08 0.08 0.07 0.07 0.05 0.05 0.04 0.05 0.04 0.03 0.03 0.03
0.02 0.03 0.04 0.04 0.03 0.03 0.03 0.03 0.03 0.02 0.02 0.02 0.03 0.03 0.02 0.01 0.01 0.01 0.01 0.01 0.02 0.03 0.03 0.03 0.03 0.03 0.03 0.03 0.03 0.04 0.06 0.08 0.08 0.07 0.07 0.07 0.07 0.07 0.05 0.04 0.03 0.03 0.04
0.03 0.04 0.04 0.04 0.03 0.03 0.02 0.02 0.02 0.02 0.03 0.02 0.03 0.03 0.02 0.00 0.00 0.00 0.00 0.01 0.02 0.03 0.03 0.04 0.03 0.02 0.02 0.02 0.01 0.01 0.02 0.04 0.06 0.07 0.06 0.07 0.07 0.08 0.06 0.05 0.04 0.05 0.05
0.04 0.04 0.04 0.03 0.02 0.02 0.02 0.02 0.02 0.02 0.02 0.02 0.02 0.03 0.03 0.01 0.00 0.00 0.00 0.01 0.02 0.03 0.05 0.05 0.03 0.02 0.03 0.03 0.02 0.02 0.02 0.02 0.03 0.05 0.05 0.06 0.07 0.08 0.07 0.07 0.07 0.07 0.07
0.03 0.03 0.02 0.02 0.02 0.02 0.03 0.03 0.02 0.02 0.02 0.02 0.02 0.03 0.03 0.01 0.00 0.00 0.01 0.02 0.02 0.04 0.05 0.05 0.04 0.03 0.02 0.02 0.03 0.05 0.04 0.03 0.02 0.03 0.05 0.06 0.07 0.08 0.09 0.09 0.09 0.08 0.07
0.02 0.02 0.01 0.01 0.02 0.03 0.03 0.03 0.03 0.02 0.02 0.02 0.02 0.02 0.03 0.02 0.00 0.01 0.02 0.03 0.03 0.02 0.02 0.02 0.01 0.02 0.01 0.01 0.03 0.05 0.04 0.03 0.02 0.02 0.03 0.04 0.03 0.04 0.06 0.09 0.09 0.08 0.07
0.02 0.02 0.01 0.01 0.02 0.03 0.03 0.02 0.02 0.02 0.02 0.02 0.02 0.03 0.03 0.02 0.01 0.00 0.01 0.02 0.02 0.01 0.01 0.01 0.01 0.00 0.00 0.01 0.01 0.04 0.04 0.03 0.02 0.02 0.03 0.03 0.03 0.03 0.02 0.05 0.08 0.09 0.09
0.02 0.02 0.02 0.01 0.02 0.03 0.04 0.04 0.03 0.03 0.02 0.03 0.02 0.02 0.01 0.01 0.01 0.01 0.01 0.01 0.01 0.01 0.01 0.01 0.01 0.00 0.00 0.00 0.01 0.01 0.02 0.02 0.02 0.03 0.04 0.05 0.05 0.04 0.03 0.03 0.05 0.06 0.08
0.02 0.02 0.02 0.02 0.02 0.03 0.04 0.05 0.05 0.05 0.04 0.03 0.03 0.01 0.01 0.01 0.01 0.01 0.01 0.01 0.01 0.01 0.01 0.01 0.01 0.00 0.00 0.00 0.00 0.00 0.00 0.01 0.02 0.02 0.04 0.05 0.05 0.05 0.04 0.04 0.04 0.05 0.06
0.02 0.02 0.02 0.02 0.02 0.02 0.03 0.04 0.05 0.05 0.04 0.02 0.02 0.01 0.01 0.01 0.01 0.01 0.01 0.01 0.01 0.01 0.01 0.01 0.01 0.01 0.00 0.01 0.00 0.00 0.00 0.01 0.02 0.02 0.03 0.04 0.04 0.04 0.04 0.04 0.05 0.06 0.06
0.01 0.02 0.02 0.03 0.02 0.01 0.02 0.02 0.02 0.01 0.01 0.01 0.01 0.01 0.01 0.01 0.01 0.01 0.02 0.02 0.01 0.01 0.01 0.01 0.01 0.01 0.01 0.01 0.01 0.01 0.01 0.01 0.02 0.02 0.03 0.03 0.03 0.04 0.04 0.04 0.04 0.06 0.07
0.02 0.02 0.02 0.02 0.02 0.02 0.01 0.01 0.00 0.00 0.00 0.00 0.00 0.00 0.01 0.01 0.01 0.01 0.02 0.01 0.01 0.01 0.01 0.01 0.02 0.02 0.01 0.02 0.02 0.02 0.01 0.01 0.02 0.02 0.02 0.03 0.04 0.05 0.05 0.05 0.05 0.05 0.05
0.02 0.03 0.02 0.01 0.01 0.01 0.00 0.00 0.00 0.01 0.00 0.00 0.01 0.01 0.01 0.01 0.01 0.01 0.01 0.00 0.00 0.00 0.00 0.01 0.02 0.02 0.02 0.02 0.02 0.03 0.02 0.02 0.02 0.02 0.03 0.03 0.03 0.04 0.05 0.05 0.04 0.03 0.03
0.02 0.03 0.02 0.01 0.01 0.01 0.00 0.00 0.00 0.01 0.01 0.01 0.01 0.02 0.02 0.01 0.01 0.01 0.00 0.00 0.00 0.01 0.01 0.01 0.02 0.02 0.02 0.02 0.02 0.02 0.02 0.02 0.02 0.03 0.02 0.02 0.03 0.03 0.03 0.03 0.03 0.03 0.03
0.02 0.03 0.02 0.01 0.01 0.01 0.00 0.00 0.00 0.00 0.00 0.01 0.01 0.02 0.02 0.01 0.01 0.01 0.01 0.00 0.01 0.01 0.01 0.01 0.02 0.02 0.02 0.01 0.02 0.02 0.02 0.02 0.02 0.02 0.03 0.03 0.03 0.03 0.03 0.03 0.03 0.04 0.04
0.02 0.01 0.01 0.01 0.00 0.00 0.00 0.00 0.00 0.00 0.00 0.01 0.01 0.01 0.02 0.01 0.01 0.01 0.01 0.01 0.02 0.03 0.03 0.03 0.02 0.01 0.01 0.02 0.02 0.02 0.02 0.02 0.02 0.02 0.02 0.03 0.04 0.03 0.03 0.03 0.03 0.03 0.03
0.01 0.01 0.01 0.00 0.00 0.00 0.00 0.00 0.00 0.00 0.00 0.01 0.01 0.01 0.01 0.01 0.01 0.01 0.02 0.03 0.04 0.04 0.03 0.03 0.02 0.01 0.01 0.01 0.01 0.01 0.02 0.02 0.02 0.02 0.03 0.03 0.04 0.04 0.03 0.02 0.02 0.03 0.03
0.00 0.00 0.00 0.00 0.00 0.00 0.00 0.00 0.00 0.00 0.00 0.01 0.01 0.01 0.01 0.01 0.02 0.02 0.03 0.03 0.03 0.02 0.02 0.02 0.02 0.02 0.02 0.02 0.02 0.02 0.02 0.02 0.02 0.02 0.03 0.03 0.03 0.03 0.03 0.03 0.03 0.02 0.02
0.01 0.00 0.00 0.00 0.00 0.00 0.00 0.00 0.00 0.00 0.00 0.01 0.01 0.00 0.01 0.01 0.01 0.02 0.02 0.02 0.02 0.02 0.02 0.03 0.03 0.03 0.03 0.04 0.03 0.02 0.02 0.03 0.03 0.03 0.02 0.02 0.02 0.02 0.03 0.02 0.02 0.02 0.02
0.01 0.00 0.00 0.00 0.00 0.00 0.00 0.00 0.00 0.00 0.00 0.00 0.00 0.00 0.00 0.00 0.00 0.01 0.01 0.02 0.02 0.02 0.02 0.03 0.03 0.02 0.02 0.02 0.03 0.04 0.04 0.05 0.04 0.03 0.03 0.02 0.02 0.02 0.02 0.02 0.02 0.03 0.03
0.02 0.00 0.00 0.00 0.00 0.00 0.00 0.00 0.00 0.00 0.00 0.00 0.00 0.00 0.01 0.01 0.01 0.01 0.02 0.02 0.02 0.02 0.02 0.02 0.02 0.02 0.01 0.02 0.03 0.05 0.07 0.07 0.06 0.04 0.03 0.02 0.02 0.02 0.02 0.02 0.02 0.03 0.03
0.03 0.01 0.00 0.00 0.00 0.00 0.00 0.00 0.00 0.00 0.00 0.00 0.00 0.01 0.01 0.02 0.02 0.02 0.02 0.02 0.02 0.02 0.01 0.01 0.02 0.02 0.02 0.02 0.03 0.06 0.08 0.07 0.05 0.03 0.03 0.02 0.02 0.02 0.01 0.01 0.01 0.02 0.03
0.03 0.01 0.00 0.00 0.00 0.00 0.00 0.00 0.00 0.00 0.00 0.01 0.02 0.02 0.01 0.01 0.01 0.01 0.01 0.02 0.02 0.02 0.02 0.02 0.02 0.02 0.02 0.03 0.05 0.07 0.06 0.04 0.03 0.03 0.03 0.03 0.02 0.01 0.01 0.01 0.01 0.01 0.02
MSLP
1017.25 1017.15 1017.10 1017.08 1017.07 1017.05 1017.01 1016.93 1016.81 1016.66 1016.49 1016.29 1016.07 1015.83 1015.59 1015.34 1015.10 1014.87 1014.67 1014.50 1014.37 1014.28 1014.20 1014.14 1014.06 1013.94 1013.76 1013.53 1013.24 1012.92 1012.60 1012.31 1012.09 1011.96 1011.95 1012.04 1012.23 1012.48 1012.76 1013.01 1013.21 1013.33 1013.36
1017.03 1016.92 1016.84 1016.79 1016.75 1016.72 1016.69 1016.65 1016.59 1016.50 1016.39 1016.24 1016.06 1015.83 1015.57 1015.29 1014.99 1014.70 1014.44 1014.21 1014.03 1013.89 1013.79 1013.71 1013.61 1013.48 1013.30 1013.05 1012.76 1012.44 1012.13 1011.85 1011.66 1011.58 1011.62 1011.77 1012.03 1012.34 1012.67 1012.98 1013.23 1013.41 1013.50
1016.80 1016.70 1016.61 1016.54 1016.49 1016.45 1016.43 1016.42 1016.40 1016.38 1016.33 1016.24 1016.10 1015.90 1015.64 1015.34 1015.00 1014.66 1014.33 1014.04 1013.81 1013.62 1013.48 1013.35 1013.22 1013.05 1012.84 1012.57 1012.27 1011.94 1011.63 1011.38 1011.23 1011.19 1011.29 1011.52 1011.84 1012.23 1012.63 1013.01 1013.33 1013.56 1013.72
1016.61 1016.54 1016.46 1016.38 1016.32 1016.27 1016.26 1016.26 1016.28 1016.31 1016.31 1016.28 1016.18 1016.01 1015.76 1015.44 1015.08 1014.70 1014.32 1013.98 1013.69 1013.45 1013.25 1013.07 1012.88 1012.66 1012.41 1012.10 1011.76 1011.42 1011.12 1010.88 1010.76 1010.77 1010.93 1011.22 1011.61 1012.07 1012.55 1013.00 1013.39 1013.70 1013.92
1016.49 1016.46 1016.40 1016.32 1016.24 1016.18 1016.16 1016.17 1016.21 1016.26 1016.30 1016.30 1016.24 1016.09 1015.86 1015.54 1015.17 1014.76 1014.35 1013.97 1013.62 1013.33 1013.06 1012.82 1012.57 1012.30 1011.98 1011.63 1011.25 1010.88 1010.56 1010.33 1010.23 1010.27 1010.47 1010.82 1011.28 1011.81 1012.36 1012.88 1013.34 1013.71 1014.01
1016.43 1016.44 1016.39 1016.31 1016.21 1016.14 1016.09 1016.09 1016.13 1016.19 1016.24 1016.27 1016.22 1016.10 1015.88 1015.57 1015.20 1014.78 1014.35 1013.93 1013.55 1013.20 1012.89 1012.59 1012.27 1011.94 1011.56 1011.15 1010.73 1010.32 1009.98 1009.74 1009.65 1009.71 1009.94 1010.33 1010.84 1011.41 1012.02 1012.59 1013.11 1013.55 1013.90
1016.38 1016.42 1016.38 1016.29 1016.18 1016.07 1016.00 1015.97 1015.99 1016.04 1016.10 1016.13 1016.10 1015.99 1015.79 1015.49 1015.13 1014.71 1014.27 1013.84 1013.43 1013.06 1012.70 1012.35 1011.98 1011.59 1011.16 1010.70 1010.24 1009.80 1009.43 1009.18 1009.08 1009.15 1009.39 1009.80 1010.32 1010.93 1011.56 1012.17 1012.73 1013.20 1013.59
1016.31 1016.35 1016.31 1016.20 1016.06 1015.93 1015.83 1015.77 1015.77 1015.80 1015.85 1015.89 1015.87 1015.77 1015.58 1015.31 1014.96 1014.56 1014.13 1013.70 1013.28 1012.89 1012.51 1012.13 1011.73 1011.30 1010.84 1010.35 1009.86 1009.40 1009.01 1008.74 1008.63 1008.69 1008.92 1009.32 1009.84 1010.45 1011.08 1011.69 1012.25 1012.74 1013.14
1016.17 1016.20 1016.14 1016.01 1015.84 1015.68 1015.55 1015.48 1015.45 1015.48 1015.52 1015.56 1015.55 1015.48 1015.31 1015.07 1014.74 1014.37 1013.96 1013.55 1013.14 1012.74 1012.36 1011.97 1011.56 1011.13 1010.65 1010.16 1009.66 1009.20 1008.81 1008.54 1008.41 1008.45 1008.67 1009.04 1009.53 1010.09 1010.69 1011.27 1011.80 1012.26 1012.64
1015.97 1015.97 1015.87 1015.71 1015.52 1015.34 1015.19 1015.10 1015.08 1015.10 1015.15 1015.20 1015.22 1015.17 1015.04 1014.83 1014.55 1014.21 1013.83 1013.44 1013.05 1012.67 1012.30 1011.92 1011.53 1011.11 1010.66 1010.18 1009.71 1009.28 1008.91 1008.64 1008.51 1008.53 1008.72 1009.04 1009.47 1009.97 1010.50 1011.02 1011.49 1011.89 1012.22
1015.73 1015.68 1015.54 1015.35 1015.14 1014.94 1014.79 1014.70 1014.68 1014.72 1014.79 1014.87 1014.92 1014.91 1014.83 1014.66 1014.42 1014.12 1013.77 1013.41 1013.05 1012.69 1012.34 1011.99 1011.63 1011.25 1010.85 1010.43 1010.01 1009.62 1009.30 1009.06 1008.94 1008.95 1009.09 1009.36 1009.71 1010.13 1010.56 1010.98 1011.36 1011.68 1011.93
1015.48 1015.37 1015.19 1014.97 1014.74 1014.54 1014.39 1014.32 1014.32 1014.38 1014.48 1014.60 1014.69 1014.72 1014.69 1014.57 1014.37 1014.11 1013.80 1013.47 1013.13 1012.80 1012.47 1012.15 1011.83 1011.51 1011.17 1010.83 1010.49 1010.18 1009.91 1009.72 1009.62 1009.62 1009.73 1009.93 1010.20 1010.51 1010.84 1011.15 1011.42 1011.64 1011.81
1015.25 1015.09 1014.88 1014.63 1014.39 1014.18 1014.04 1013.98 1014.00 1014.09 1014.23 1014.38 1014.51 1014.59 1014.60 1014.52 1014.36 1014.13 1013.85 1013.54 1013.22 1012.91 1012.61 1012.32 1012.05 1011.78 1011.52 1011.26 1011.01 1010.79 1010.60 1010.47 1010.40 1010.40 1010.47 1010.61 1010.80 1011.01 1011.23 1011.43 1011.59 1011.71 1011.79
1015.05 1014.86 1014.62 1014.35 1014.10 1013.89 1013.75 1013.70 1013.74 1013.85 1014.01 1014.19 1014.35 1014.46 1014.50 1014.45 1014.32 1014.12 1013.85 1013.55 1013.24 1012.93 1012.64 1012.38 1012.15 1011.94 1011.75 1011.58 1011.43 1011.30 1011.19 1011.12 1011.09 1011.10 1011.15 1011.24 1011.35 1011.47 1011.58 1011.68 1011.75 1011.79 1011.80
1014.88 1014.67 1014.41 1014.13 1013.87 1013.66 1013.52 1013.46 1013.50 1013.61 1013.77 1013.96 1014.13 1014.25 1014.31 1014.27 1014.15 1013.95 1013.69 1013.39 1013.07 1012.77 1012.48 1012.24 1012.03 1011.87 1011.74 1011.65 1011.59 1011.54 1011.52 1011.51 1011.52 1011.55 1011.58 1011.63 1011.67 1011.72 1011.75 1011.76 1011.76 1011.75 1011.72
1014.71 1014.50 1014.23 1013.95 1013.68 1013.46 1013.31 1013.23 1013.24 1013.33 1013.47 1013.63 1013.78 1013.90 1013.94 1013.91 1013.78 1013.58 1013.31 1013.00 1012.67 1012.35 1012.06 1011.82 1011.63 1011.50 1011.42 1011.39 1011.40 1011.43 1011.47 1011.52 1011.57 1011.61 1011.64 1011.66 1011.66 1011.65 1011.62 1011.58 1011.54 1011.50 1011.46
1014.51 1014.30 1014.05 1013.77 1013.50 1013.27 1013.09 1012.98 1012.94 1012.98 1013.07 1013.18 1013.29 1013.37 1013.39 1013.33 1013.20 1012.98 1012.70 1012.37 1012.03 1011.69 1011.39 1011.15 1010.97 1010.86 1010.81 1010.83 1010.88 1010.97 1011.06 1011.16 1011.24 1011.30 1011.32 1011.32 1011.30 1011.25 1011.19 1011.12 1011.06 1011.01 1010.98
1014.23 1014.06 1013.83 1013.57 1013.30 1013.05 1012.84 1012.68 1012.59 1012.56 1012.58 1012.62 1012.67 1012.70 1012.68 1012.59 1012.43 1012.20 1011.91 1011.57 1011.22 1010.87 1010.56 1010.31 1010.13 1010.03 1010.00 1010.04 1010.12 1010.24 1010.38 1010.50 1010.60 1010.67 1010.70 1010.69 1010.65 1010.58 1010.51 1010.44 1010.37 1010.33 1010.32
1013.89 1013.76 1013.56 1013.32 1013.06 1012.80 1012.56 1012.35 1012.20 1012.09 1012.03 1012.00 1011.98 1011.95 1011.88 1011.76 1011.58 1011.34 1011.04 1010.70 1010.35 1010.00 1009.69 1009.43 1009.25 1009.14 1009.11 1009.16 1009.26 1009.40 1009.54 1009.68 1009.80 1009.87 1009.91 1009.89 1009.84 1009.77 1009.69 1009.62 1009.57 1009.54 1009.56
1013.50 1013.41 1013.25 1013.05 1012.80 1012.53 1012.26 1012.02 1011.80 1011.62 1011.48 1011.38 1011.28 1011.19 1011.08 1010.93 1010.74 1010.49 1010.20 1009.87 1009.53 1009.19 1008.88 1008.62 1008.43 1008.32 1008.29 1008.33 1008.43 1008.56 1008.71 1008.85 1008.97 1009.05 1009.08 1009.07 1009.02 1008.95 1008.87 1008.80 1008.76 1008.75 1008.77
1013.08 1013.04 1012.92 1012.75 1012.52 1012.25 1011.97 1011.69 1011.42 1011.18 1010.97 1010.79 1010.64 1010.50 1010.35 1010.19 1009.99 1009.75 1009.47 1009.16 1008.84 1008.51 1008.21 1007.96 1007.77 1007.65 1007.60 1007.63 1007.71 1007.84 1007.98 1008.11 1008.22 1008.30 1008.33 1008.32 1008.28 1008.21 1008.14 1008.07 1008.03 1008.03 1008.05
1012.67 1012.66 1012.58 1012.44 1012.23 1011.97 1011.68 1011.37 1011.06 1010.77 1010.51 1010.28 1010.08 1009.90 1009.73 1009.55 1009.35 1009.13 1008.87 1008.59 1008.29 1007.99 1007.71 1007.46 1007.26 1007.13 1007.07 1007.08 1007.15 1007.25 1007.37 1007.50 1007.61 1007.68 1007.72 1007.71 1007.67 1007.61 1007.54 1007.48 1007.44 1007.42 1007.44
1012.27 1012.28 1012.23 1012.11 1011.92 1011.67 1011.37 1011.04 1010.71 1010.38 1010.08 1009.81 1009.57 1009.37 1009.18 1009.00 1008.81 1008.61 1008.38 1008.12 1007.85 1007.57 1007.30 1007.06 1006.87 1006.73 1006.65 1006.64 1006.68 1006.77 1006.88 1007.00 1007.10 1007.18 1007.22 1007.23 1007.20 1007.14 1007.08 1007.01 1006.96 1006.93 1006.93
1011.85 1011.87 1011.83 1011.72 1011.54 1011.29 1010.99 1010.65 1010.30 1009.95 1009.62 1009.32 1009.06 1008.84 1008.65 1008.47 1008.29 1008.10 1007.90 1007.67 1007.42 1007.16 1006.91 1006.68 1006.48 1006.33 1006.24 1006.22 1006.25 1006.32 1006.42 1006.53 1006.64 1006.73 1006.78 1006.80 1006.79 1006.74 1006.68 1006.62 1006.56 1006.51 1006.47
1011.38 1011.40 1011.36 1011.25 1011.06 1010.81 1010.50 1010.16 1009.79 1009.43 1009.08 1008.77 1008.50 1008.27 1008.07 1007.90 1007.73 1007.56 1007.37 1007.16 1006.93 1006.69 1006.45 1006.23 1006.03 1005.88 1005.78 1005.74 1005.76 1005.83 1005.93 1006.04 1006.16 1006.26 1006.33 1006.37 1006.37 1006.34 1006.29 1006.22 1006.15 1006.08 1006.02
1010.80 1010.81 1010.75 1010.63 1010.44 1010.19 1009.87 1009.52 1009.15 1008.78 1008.43 1008.12 1007.84 1007.61 1007.42 1007.25 1007.09 1006.93 1006.76 1006.57 1006.35 1006.12 1005.89 1005.67 1005.48 1005.33 1005.22 1005.18 1005.20 1005.27 1005.37 1005.50 1005.63 1005.75 1005.84 1005.90 1005.91 1005.89 1005.84 1005.77 1005.68 1005.59 1005.50
Thickness
5661 5657 5651 5647 5643 5639 5635 5631 5628 5625 5622 5620 5618 5616 5614 5612 5610 5608 5607 5606 5604 5602 5601 5600 5598 5598 5596 5596 5596 5595 5594 5592 5590 5592 5593 5594 5594 5595 5596 5597 5598 5598 5599
5657 5652 5647 5643 5638 5634 5630 5626 5623 5620 5618 5615 5613 5611 5610 5608 5606 5604 5602 5601 5599 5597 5596 5594 5593 5592 5591 5590 5589 5589 5588 5588 5586 5586 5587 5587 5588 5590 5591 5592 5593 5595 5595
5654 5649 5643 5638 5634 5629 5625 5622 5619 5616 5614 5612 5609 5607 5606 5604 5602 5600 5598 5597 5595 5593 5591 5589 5588 5586 5585 5585 5584 5584 5583 5584 5583 5582 5582 5583 5584 5585 5586 5587 5589 5590 5591
5650 5645 5639 5635 5631 5627 5623 5619 5616 5613 5610 5608 5606 5604 5602 5600 5598 5596 5594 5592 5590 5588 5587 5585 5583 5581 5580 5579 5579 5578 5578 5577 5577 5576 5577 5578 5579 5580 5581 5581 5582 5585 5587
5646 5641 5636 5632 5629 5625 5621 5618 5614 5611 5609 5606 5604 5602 5599 5597 5594 5590 5588 5588 5585 5583 5582 5581 5579 5578 5576 5574 5574 5573 5572 5571 5571 5571 5571 5572 5573 5573 5575 5577 5578 5580 5582
5642 5638 5635 5630 5627 5623 5619 5616 5612 5609 5606 5604 5601 5598 5596 5593 5588 5585 5583 5582 5581 5580 5578 5577 5576 5575 5573 5572 5570 5569 5567 5566 5566 5566 5567 5567 5568 5570 5571 5573 5573 5573 5575
5640 5637 5633 5629 5626 5622 5619 5615 5610 5607 5604 5601 5599 5596 5592 5589 5585 5583 5581 5578 5578 5577 5576 5575 5574 5574 5571 5569 5568 5566 5565 5564 5563 5563 5563 5564 5565 5567 5567 5568 5569 5569 5571
5638 5635 5632 5628 5625 5621 5617 5613 5609 5605 5602 5599 5597 5594 5591 5587 5584 5581 5579 5577 5577 5576 5575 5574 5572 5571 5569 5566 5565 5564 5564 5563 5563 5562 5562 5563 5564 5564 5565 5565 5566 5567 5569
5637 5634 5631 5628 5624 5619 5615 5611 5608 5604 5601 5599 5596 5594 5590 5586 5583 5580 5577 5576 5576 5575 5575 5573 5572 5569 5565 5563 5562 5561 5561 5561 5562 5562 5561 5561 5561 5561 5561 5561 5562 5563 5565
5635 5633 5630 5627 5623 5619 5614 5610 5607 5604 5601 5599 5596 5593 5590 5587 5583 5580 5576 5575 5574 5574 5573 5572 5569 5567 5564 5561 5560 5559 5559 5559 5560 5560 5559 5560 5560 5561 5560 5559 5560 5561 5562
5635 5632 5628 5625 5622 5618 5614 5610 5607 5604 5601 5598 5596 5594 5592 5588 5584 5580 5577 5574 5573 5571 5571 5570 5568 5565 5562 5560 5558 5558 5558 5557 5558 5559 5559 5560 5561 5561 5561 5561 5561 5561 5561
5633 5630 5626 5623 5621 5618 5613 5609 5607 5604 5601 5599 5597 5594 5592 5589 5586 5582 5578 5574 5571 5569 5569 5569 5567 5564 5562 5561 5559 5559 5558 5557 5558 5559 5559 5559 5560 5561 5562 5562 5562 5562 5562
5631 5628 5624 5621 5619 5617 5613 5610 5607 5604 5601 5599 5598 5595 5593 5591 5587 5583 5579 5576 5573 5569 5569 5568 5565 5563 5563 5563 5562 5561 5559 5558 5559 5559 5560 5560 5561 5562 5562 5562 5562 5562 5562
5630 5627 5623 5621 5619 5616 5614 5611 5608 5605 5602 5600 5599 5596 5594 5592 5588 5584 5580 5577 5574 5571 5569 5568 5567 5566 5566 5565 5565 5564 5563 5562 5561 5561 5560 5561 5561 5561 5561 5561 5560 5559 5559
5630 5627 5624 5623 5620 5617 5614 5612 5609 5607 5604 5600 5598 5596 5592 5590 5585 5581 5578 5577 5574 5571 5567 5568 5569 5569 5570 5570 5570 5569 5568 5566 5564 5563 5562 5561 5561 5560 5560 5560 5559 5558 5556
5630 5627 5626 5624 5622 5619 5616 5613 5611 5608 5605 5602 5598 5595 5592 5589 5585 5582 5578 5575 5572 5568 5566 5569 5569 5570 5571 5572 5572 5572 5571 5570 5568 5566 5563 5562 5561 5560 5559 5558 5557 5556 5555
5632 5629 5627 5626 5624 5621 5619 5616 5612 5609 5606 5603 5599 5596 5592 5589 5586 5583 5579 5576 5573 5569 5568 5571 5572 5572 5573 5574 5574 5573 5573 5572 5571 5568 5566 5564 5562 5560 5559 5557 5556 5555 5554
5633 5630 5628 5627 5626 5624 5622 5620 5617 5613 5609 5606 5602 5598 5594 5591 5588 5584 5580 5575 5577 5575 5575 5575 5575 5576 5575 5575 5575 5574 5574 5573 5571 5569 5567 5564 5562 5560 5558 5557 5556 5554 5553
5635 5633 5631 5630 5628 5627 5625 5622 5620 5617 5614 5611 5607 5602 5596 5593 5589 5585 5580 5578 5581 5581 5581 5580 5579 5579 5578 5576 5575 5574 5573 5572 5570 5568 5566 5563 5561 5559 5558 5557 5555 5554 5551
5637 5634 5631 5631 5630 5629 5627 5624 5622 5619 5615 5612 5609 5605 5601 5596 5593 5591 5587 5584 5584 5584 5583 5582 5581 5580 5579 5577 5575 5574 5572 5571 5569 5567 5565 5563 5561 5559 5557 5555 5554 5553 5551
5640 5638 5633 5632 5632 5631 5628 5625 5622 5619 5616 5612 5610 5608 5603 5600 5598 5596 5593 5590 5588 5587 5585 5584 5582 5580 5579 5577 5575 5573 5571 5569 5566 5564 5562 5561 5559 5557 5556 5555 5552 5551 5550
5643 5642 5638 5636 5634 5631 5628 5626 5623 5620 5616 5613 5611 5609 5604 5601 5600 5598 5595 5593 5591 5588 5586 5584 5581 5579 5577 5575 5572 5570 5567 5565 5563 5561 5560 5558 5556 5555 5554 5552 5551 5549 5548
5643 5642 5640 5638 5636 5631 5628 5626 5624 5620 5617 5614 5612 5609 5605 5602 5600 5597 5594 5592 5590 5587 5584 5582 5579 5576 5574 5572 5569 5566 5562 5559 5557 5555 5553 5552 5551 5550 5549 5548 5547 5545 5544
5645 5644 5642 5639 5637 5634 5630 5627 5623 5621 5618 5614 5611 5607 5603 5600 5598 5595 5592 5589 5586 5583 5580 5578 5574 5572 5569 5567 5565 5561 5556 5553 5551 5549 5547 5545 5544 5544 5544 5543 5542 5541 5540
5646 5645 5643 5640 5637 5634 5630 5626 5624 5620 5617 5613 5610 5606 5603 5599 5596 5593 5589 5586 5582 5579 5576 5573 5570 5567 5564 5561 5557 5553 5549 5546 5543 5541 5539 5538 5538 5538 5537 5536 5536 5535 5535
5647 5645 5643 5641 5637 5634 5629 5625 5622 5618 5615 5611 5608 5605 5602 5598 5594 5590 5586 5582 5578 5574 5571 5568 5565 5561 5557 5553 5549 5545 5542 5539 5537 5535 5532 5532 5532 5531 5530 5529 5529 5528 5528